Regional Weather Roundup
Issued by NWS

Home | Current Version | Previous Version | Text Only | Print | Product List | Glossary Off
Versions: 1 2 3 4 5 6 7 8 9 10 11 12 13 14 15 16 17 18 19 20 21 22 23 24 25 26 27 28 29 30 31 32 33 34 35 36 37 38 39 40 41 42 43 44 45 46 47 48 49 50

000
ASUS43 KLSX 100607
RWRMO

WEATHER SUMMARY FOR MISSOURI
NATIONAL WEATHER SERVICE SPRINGFIELD MO
1200 AM CST SAT DEC 10 2016

NOTE: "FAIR" INDICATES FEW OR NO CLOUDS BELOW 12,000 FEET WITH NO
       SIGNIFICANT WEATHER AND/OR OBSTRUCTIONS TO VISIBILITY.
       CURRENT SKY AND/OR WEATHER CONDITIONS ARE NOT AVAILABLE FOR
       CHILLICOTHE AND FARMINGTON.

MOZ001>031-035>038-043-044-053-054-100700-
...NORTHERN AND WESTERN MISSOURI...

CITY           SKY/WX    TMP DP  RH WIND       PRES   REMARKS
KANSAS CTY INT CLOUDY    27  11  51 SE7       30.49F WCI  19
6HR MIN TEMP:  26; 6HR MAX TEMP:  27;

KANSAS C DTWN  CLOUDY    28  11  48 SE6       30.51F WCI  22
6HR MIN TEMP:  28; 6HR MAX TEMP:  29;

LEE`S SUMMIT   CLOUDY    26  13  57 E6        30.50F WCI  19
6HR MIN TEMP:  26; 6HR MAX TEMP:  27;

ST JOSEPH      CLOUDY    26  13  57 SE5       30.51S WCI  20
6HR MIN TEMP:  26; 6HR MAX TEMP:  26;

CHILLICOTHE      N/A     25  11  55 CALM      30.54F
6HR MIN TEMP:  25; 6HR MAX TEMP:  26;

KIRKSVILLE     CLOUDY    23  16  74 SE3       30.52F
6HR MIN TEMP:  23; 6HR MAX TEMP:  25;


$$
MOZ066>068-077>081-088>096-101>105-100700-
...SOUTHWEST MISSOURI...

CITY           SKY/WX    TMP DP  RH WIND       PRES   REMARKS
SPRINGFIELD    CLOUDY    31  14  49 S12       30.48F WCI  22
6HR MIN TEMP:  30; 6HR MAX TEMP:  31;

JOPLIN         CLOUDY    31  16  54 SE8       30.49F WCI  23
6HR MIN TEMP:  31; 6HR MAX TEMP:  32;

BRANSON        CLOUDY    28  16  59 SE6       30.51F WCI  22

$$
MOZ032>034-039>042-045>050-055>058-069>072-100700-
...CENTRAL MISSOURI...

CITY           SKY/WX    TMP DP  RH WIND       PRES   REMARKS
COLUMBIA       CLOUDY    24  12  60 E3        30.55S
6HR MIN TEMP:  23; 6HR MAX TEMP:  25;

JEFFERSON CITY CLOUDY    25  11  55 CALM      30.58R
6HR MIN TEMP:  23; 6HR MAX TEMP:  26;

ROLLA          CLOUDY    23  11  60 E6        30.52S WCI  16
6HR MIN TEMP:  17; 6HR MAX TEMP:  23;

SEDALIA        CLOUDY    26  12  55 E7        30.54F WCI  18
6HR MIN TEMP:  26; 6HR MAX TEMP:  27;

WHITEMAN AFB   CLOUDY    26  13  58 E5        30.52S WCI  20
WARRENSBURG    CLOUDY    27  12  54 E6        30.54S WCI  20
OSAGE BEACH    CLOUDY    26  14  60 NE6       30.55R WCI  19

$$
MOZ051-052-059>065-100700-
...EAST CENTRAL MISSOURI...

CITY           SKY/WX    TMP DP  RH WIND       PRES   REMARKS
ST LOUIS INTL  CLOUDY    26  15  63 CALM      30.58S
6HR MIN TEMP:  23; 6HR MAX TEMP:  26;

SPIRIT OF STL  CLOUDY    22  18  85 CALM      30.58F
6HR MIN TEMP:  18; 6HR MAX TEMP:  23;

ST CHARLES     CLOUDY    24  19  81 CALM      30.58F
6HR MIN TEMP:  21; 6HR MAX TEMP:  24;


$$
MOZ072>076-082>087-097>100-106>115-100700-
...SOUTH CENTRAL AND SOUTHEAST MISSOURI...

CITY           SKY/WX    TMP DP  RH WIND       PRES   REMARKS
CAPE GIRARDEAU CLEAR     19  15  84 CALM      30.60F
6HR MIN TEMP:  18; 6HR MAX TEMP:  28;

FARMINGTON     MOCLDY    16  12  84 CALM      30.55F
6HR MIN TEMP:  15; 6HR MAX TEMP:  26;

POPLAR BLUFF   CLEAR     22  21  96 CALM      30.60S
6HR MIN TEMP:  22; 6HR MAX TEMP:  28;

WEST PLAINS    CLEAR     20  14  77 S3        30.53F
6HR MIN TEMP:  20; 6HR MAX TEMP:  26;


$$


USA.gov is the U.S. government's official web portal to all federal, state and local government web resources and services.